Regional Weather Roundup
Issued by NWS State College, PA

Home | Current Version | Previous Version | Text Only | Print | Product List | Glossary On
Versions: 1 2 3 4 5 6 7 8 9 10 11 12 13 14 15 16 17 18 19 20 21 22 23 24 25 26 27 28 29 30 31 32 33 34 35 36 37 38 39 40 41 42 43 44 45 46 47 48 49 50
000
ASUS41 KCTP 301310
RWRCTP

REGIONAL WEATHER ROUNDUP
NATIONAL WEATHER SERVICE STATE COLLEGE PA
800 AM EST FRI JAN 30 2015

Note: "fair" indicates few or no clouds below 12,000 feet with no
significant weather and/or obstructions to visibility.

* = STATION THAT DOES NOT REPORT PRECIPITATION /E.G. RAIN...SNOW...ETC/
    THUNDER OR FOG.

PAZ002>004-007>009-013>016-020>023-029>032-301400-
WESTERN PENNSYLVANIA

CITY           SKY/WX    TMP DP  RH WIND       PRES   REMARKS
ERIE           LGT SNOW  22  16  78 W14G21    30.15R WCI   9
MEADVILLE      SNOW      18  13  80 W14G23    30.09R VSB 1/2 WCI   4
FRANKLIN*      CLOUDY    18  12  79 NW15G22   30.08R WCI   3
NEW CASTLE     LGT SNOW  19  16  86 W9        30.17R FOG     WCI   9
BEAVER COUNTY  LGT SNOW  21  19  93 NW14G25   30.13R VSB 1   WCI   8
BUTLER*        CLOUDY    21  16  79 W12G22    30.12R WCI   9
PITTSBURGH INT LGT SNOW  24  20  84 NW22      30.11R BLWGSNOWWCI   9
PITTSBURGH     LGT SNOW  24  17  74 NW10G21   30.09R WCI  14
INDIANA*       CLOUDY    25  19  80 NW10      30.06R WCI  15
LATROBE        CLOUDY    27  19  74 NW15G24   30.08R WCI  15
WASHINGTON CO* MOCLDY    27  18  69 NW8G20    30.13R
$$

PAZ004>006-010>012-017>019-024>028-033>037-041-042-045-046-049>053-301400-
CENTRAL PENNSYLVANIA

CITY           SKY/WX    TMP DP  RH WIND       PRES   REMARKS
BRADFORD       LGT SNOW  22  17  81 NW13      29.92R WCI  10
DUBOIS         FOG       22  18  85 NW15G23   29.96R VSB 3/4 WCI   9
CLEARFIELD     MIX PCPN  26  21  81 W13G22    29.96R WCI  15
JOHNSTOWN      SNOW      23  19  85 W21G31    29.93R VSB 1/2 WCI   8
ALTOONA        CLOUDY    28  20  71 NW20G29   29.96R WCI  15
STATE COLLEGE  CLOUDY    30  23  74 NW14      29.95R
WILLIAMSPORT   CLOUDY    31  23  72 NW9       29.93R
SELINSGROVE    CLOUDY    34  24  67 NW12      29.94R
FT INDIANTOWN  CLOUDY    32  27  80 W10G17    29.92S
CAPITAL CITY   CLOUDY    34  24  67 W15       29.94S
HARRISBURG     CLOUDY    33  25  72 NW16      29.93S
YORK           CLOUDY    33  23  66 W9        29.95R
$$

PAZ038>040-043-044-047-048-054-055-060>062-067>071-301400-
EASTERN PENNSYLVANIA

CITY           SKY/WX    TMP DP  RH WIND       PRES   REMARKS
SCRANTON       HVY SNOW  27  24  89 SW6       29.86S VSB 1/4
MOUNT POCONO   LGT SNOW  25  21  85 NW12      29.77R FOG     WCI  14
ALLENTOWN      CLOUDY    31  24  75 W8        29.89R
QUAKERTOWN*    CLOUDY    32  25  74 NW7       29.89R
READING        LGT SNOW  30  27  88 W5        29.91R
LANCASTER      CLOUDY    30  28  92 W10       29.92S FOG
COATESVILLE    LGT SNOW  32  30  93 NW16      29.91R
POTTSTOWN      CLOUDY    30  25  81 W8        29.91R
BLUE BELL      CLOUDY    32  28  86 W3        29.89R
DOYLESTOWN     CLOUDY    30  25  81 NW8       29.87R
WILLOW GROVE   NOT AVBL
NORTH PHILA    CLOUDY    34  24  67 NW12      29.91R
PHILADELPHIA   MOCLDY    35  25  66 NW12      29.92R
$$


USA.gov is the U.S. government's official web portal to all federal, state and local government web resources and services.